Location: Krakow
(50.0830°N, 19.9170°E)
Time: 20:36:05
(UTC+01:00)

Altair - Pass Details

Date: 01 December 2023
Orbit: 1501 x 1682 km, 47.2° (Epoch: 03 March)

Event Time Altitude Azimuth Distance (km) Brightness Sun altitude
Rises 07:45:18 0° 200° (SSW) 4,815 10.4 2.8°
Reaches altitude 10° 07:49:00 10° 190° (S) 3,803 10.1 3.3°
Maximum altitude 07:56:40 28° 136° (SE) 2,612 10.2 4.2°
Drops below altitude 10° 08:04:08 10° 83° (E) 3,705 10.2 5.1°
Sets 08:07:40 0° 72° (ENE) 4,671 10.5 5.5°
